Rolla, MO

9:16 AM CDT on July 20, 2017 (GMT -0500)
Rolla National

Weather History for KVIH - November, 2012

Change the Weather History Date:

Saturday, November 10, 2012

  Actual Average Record
Temperature  
Mean Temperature 67 °F 48 °F  
Max Temperature 78 °F 58 °F 80 °F (1902)
Min Temperature 56 °F 38 °F 17 °F (1960)
Degree Days  
Heating Degree Days 0 17  
Month to date heating degree days 169 156  
Since 1 July heating degree days 634 506  
Cooling Degree Days 2 0  
Month to date cooling degree days 2 0  
Year to date cooling degree days 1693 1243  
Growing Degree Days 17 (Base 50)    
Moisture  
Dew Point 48 °F    
Average Humidity 57    
Maximum Humidity 68    
Minimum Humidity 31    
Precipitation  
Precipitation 0.00 in 0.14 in 1.22 in (1974)
Month to date precipitation 0.34 1.26  
Year to date precipitation 30.00 38.36  
Sea Level Pressure  
Sea Level Pressure 29.92 in    
Wind  
Wind Speed 19 mph (South)    
Max Wind Speed 31 mph    
Max Gust Speed 40 mph    
Visibility 10 miles    
Events      
T = Trace of Precipitation, MM = Missing Value Source: NWS Daily Summary

Daily Weather History Graph

Daily Weather History Graph

Search for Another Location

Airport or City:

Trip Planner

Search our weather history database for the weather conditions in past years. The results will help you decide how hot, cold, wet, or windy it might be!

Date:

Astronomy

Nov. 10, 2012 Rise Set
Actual Time 6:43 AM CST 4:58 PM CST
Civil Twilight 6:15 AM CST 5:26 PM CST
Nautical Twilight 5:43 AM CST 5:57 PM CST
Astronomical Twilight 5:12 AM CST 6:28 PM CST
Moon 2:51 AM CST (11/10) 2:43 PM CST (11/10)
Length of Visible Light 11h 11m
Length of Day
10h 15m
Waning Crescent, 14% of the Moon is Illuminated
Nov 10
Waning Crescent
Nov 13
New
Nov 20
First Quarter
Nov 28
Full
Dec 6
Last Quarter

Hourly Weather History & Observations

Time (CST) Temp. Dew Point Humidity Pressure Visibility Wind Dir Wind Speed Gust Speed Precip Events Conditions
12:53 AM 57.9 °F 45.0 °F 62% 29.94 in 10.0 mi South 15.0 mph 25.3 mph N/A   Clear
1:53 AM 57.0 °F 44.1 °F 62% 29.93 in 10.0 mi South 15.0 mph 23.0 mph N/A   Clear
2:53 AM 57.0 °F 45.0 °F 64% 29.94 in 10.0 mi South 13.8 mph - N/A   Clear
3:53 AM 57.9 °F 45.0 °F 62% 29.94 in 10.0 mi South 16.1 mph - N/A   Partly Cloudy
4:53 AM 57.0 °F 44.1 °F 62% 29.94 in 10.0 mi South 12.7 mph - N/A   Clear
5:53 AM 57.2 °F 44.6 °F 63% 29.96 in 10.0 mi South 16.1 mph - N/A   Clear
6:28 AM 57.2 °F 46.4 °F 67% 29.96 in 10.0 mi South 13.8 mph 33.4 mph N/A   Clear
6:42 AM 57.2 °F 46.4 °F 67% 29.96 in 10.0 mi South 13.8 mph - N/A   Clear
6:53 AM 57.0 °F 46.0 °F 67% 29.95 in 10.0 mi South 15.0 mph - N/A   Clear
7:53 AM 59.0 °F 48.0 °F 67% 29.96 in 10.0 mi South 16.1 mph - N/A   Clear
8:53 AM 63.0 °F 50.0 °F 63% 29.96 in 10.0 mi South 18.4 mph 24.2 mph N/A   Clear
9:53 AM 66.0 °F 50.0 °F 56% 29.96 in 10.0 mi South 19.6 mph 28.8 mph N/A   Clear
10:53 AM 71.1 °F 51.1 °F 49% 29.94 in 10.0 mi South 19.6 mph 28.8 mph N/A   Clear
11:53 AM 75.0 °F 46.9 °F 37% 29.91 in 10.0 mi SSW 19.6 mph 29.9 mph N/A   Clear
12:53 PM 77.0 °F 45.0 °F 32% 29.89 in 10.0 mi South 21.9 mph 29.9 mph N/A   Clear
1:53 PM 77.0 °F 44.1 °F 31% 29.87 in 10.0 mi South 19.6 mph 31.1 mph N/A   Clear
2:53 PM 75.0 °F 48.0 °F 38% 29.86 in 10.0 mi South 23.0 mph 29.9 mph N/A   Clear
3:53 PM 72.0 °F 46.0 °F 40% 29.87 in 10.0 mi South 18.4 mph 24.2 mph N/A   Clear
4:53 PM 69.1 °F 46.0 °F 44% 29.88 in 10.0 mi South 21.9 mph 29.9 mph N/A   Clear
5:53 PM 66.0 °F 48.0 °F 52% 29.89 in 10.0 mi South 23.0 mph 31.1 mph N/A   Clear
6:53 PM 64.0 °F 48.0 °F 56% 29.89 in 10.0 mi South 20.7 mph 31.1 mph N/A   Clear
7:53 PM 63.0 °F 52.0 °F 67% 29.89 in 10.0 mi SSE 19.6 mph 33.4 mph N/A   Clear
8:53 PM 63.0 °F 52.0 °F 67% 29.89 in 10.0 mi South 25.3 mph 36.8 mph N/A   Clear
9:53 PM 62.6 °F 51.8 °F 68% 29.90 in 10.0 mi South 21.9 mph 32.2 mph N/A   Clear
10:53 PM 63.0 °F 51.1 °F 65% 29.86 in 10.0 mi South 27.6 mph 35.7 mph N/A   Clear
11:53 PM 64.0 °F 51.1 °F 63% 29.86 in 10.0 mi South 24.2 mph 36.8 mph N/A   Clear